YUNYAO-1 48

导读

云遥一号48星(YUNYAO-1 48)是中国云遥宇航自主研发的气象遥感卫星,于2025年3月21日在酒泉卫星发射中心由谷神星一号运载火箭发射入轨。作为中国首颗双极化GNSS掩星探测卫星,它可精准获取大气水凝物分布,能将强对流天气预警时效提前超30分钟,为极端天气研究预警提供关键数据支撑,是我国商业气象遥感领域的重要技术突破,目前卫星在轨运行正常。

基本信息
目录编号:
63349
目录名称:
YUNYAO-1 48
国际标识:
2025-059F
轨道中心:
EARTH
卫星名称:
YUNYAO-1 48
卫星全名:
YUNYAO-1 48
卫星状态:
在轨 (已飞行493 天)
发射日期:
2025-03-21 UTC
国别 :
中国 (CN)
星等 :
--
轨道信息
数据来源 国际轨道数据
星历时间: 2026-07-27T22:12:18+0800
8小时前
查看轨道信息
半长轴: 6909.825km
偏心率: 0.0015843
轨道倾角: 97.611°
近地点辐角 27.003°
升交点赤经 29.916°
平近点角 333.203°
近地点: 520.74km
远地点: 542.636km
周期: 95.271分钟
每日圈数: 15.114794
详细信息
使用方式:
暂无
2D轨道图
3D轨道图
轨道高度分析图
轨道倾角分析图
轨道综合分析图
查看轨道综合分析图